DateTimeUTC,F1_A11,F1_S11,BsB_S11,BsG_S11,BsR_S11,BbsB_S11,BbsG_S11,BbsR_S11,BaB_A11,BaG_A11,BaR_A11,Tu_S11,T_S11,Uu_S11,U_S11,P_S11,T1_A11
2021-04-27T07:00:00Z,00040200,20000000,,,,,,,-000.40,-000.27,-000.05,18.1,25.0,04.6,03.0,0683.4,31.2
2021-04-27T07:01:00Z,00040200,20000000,,,,,,,-000.44,-000.73,-000.68,18.1,25.0,04.6,03.0,0683.4,31.1
2021-04-27T07:02:00Z,00040200,20000000,,,,,,,-000.61,-000.15,-000.15,18.1,25.0,04.4,02.9,0683.4,31.1
2021-04-27T07:03:00Z,00040200,60000000,,,,,,,0000.24,0000.06,0000.36,18.1,25.0,04.3,02.8,0683.4,31.2
2021-04-27T07:04:00Z,00040200,40000000,0001.89,0001.71,0000.89,0000.35,0000.20,0000.07,0000.56,0000.35,0000.19,18.2,24.9,03.8,02.5,0684.4,31.1
2021-04-27T07:05:00Z,00040200,00000000,0001.49,0001.46,0000.99,0000.28,0000.22,0000.02,0000.66,0000.92,0000.32,18.2,24.8,03.7,02.5,0684.5,31.1
2021-04-27T07:06:00Z,00040200,00000000,0002.40,0001.83,0001.23,0000.07,0000.45,0000.12,0000.89,0000.83,0000.72,18.2,24.8,03.7,02.4,0684.5,31.1
2021-04-27T07:07:00Z,00040200,00000000,0002.59,0001.59,0001.29,0000.54,0000.22,0000.34,0000.95,0000.27,0000.59,18.2,24.8,03.7,02.5,0684.5,31.2
2021-04-27T07:08:00Z,00040200,00000000,0003.13,0002.17,0001.43,0000.15,0000.23,0000.38,0000.94,0001.23,0000.57,18.2,24.8,03.8,02.5,0684.5,31.2
2021-04-27T07:09:00Z,00040200,00000000,0002.02,0001.97,0001.03,0000.47,0000.38,0000.27,0000.45,0000.39,0000.48,18.3,24.8,03.8,02.6,0684.5,31.2
2021-04-27T07:10:00Z,00040200,00000000,0002.31,0001.55,0001.01,0000.06,0000.15,0000.05,0000.84,0000.74,0000.65,18.3,24.8,03.8,02.5,0684.5,31.2
2021-04-27T07:11:00Z,00040200,00000000,0002.45,0001.52,0000.95,0000.64,0000.21,0000.32,0000.87,0000.78,0000.76,18.3,24.8,04.0,02.7,0684.5,31.1
2021-04-27T07:12:00Z,00040200,00000000,0001.91,0001.50,0001.25,0000.21,0000.32,0000.53,0000.93,0000.92,0000.50,18.3,24.8,04.1,02.8,0684.5,31.2
2021-04-27T07:13:00Z,00040200,00000000,0002.27,0001.51,0000.99,0000.21,0000.54,0000.33,0000.86,0000.81,0000.36,18.3,24.8,04.1,02.8,0684.5,31.1
2021-04-27T07:14:00Z,00040200,00000000,0001.83,0001.49,0001.31,0000.42,0000.22,0000.31,0000.47,0000.34,0000.75,18.3,24.8,04.3,02.9,0684.4,31.2
2021-04-27T07:15:00Z,00040200,00000000,0003.03,0002.07,0001.28,0000.67,0000.30,0000.33,0000.75,0000.75,0000.46,18.3,24.8,04.4,02.9,0684.5,31.2
2021-04-27T07:16:00Z,00040200,00000000,0003.05,0002.10,0001.55,0000.58,0000.31,0000.12,0000.60,0000.51,0000.50,18.3,24.8,04.3,02.9,0684.5,31.1
2021-04-27T07:17:00Z,00040200,00000000,0002.80,0002.19,0001.45,0000.39,0000.30,0000.53,0000.92,0001.17,0000.58,18.3,24.8,04.2,02.8,0684.5,31.1
2021-04-27T07:18:00Z,00040200,00000000,0002.37,0002.13,0001.62,0000.09,0000.42,0000.31,0000.78,0000.48,0000.37,18.3,24.9,04.3,02.8,0684.5,31.2
2021-04-27T07:19:00Z,00040200,00000000,0003.20,0001.73,0000.92,0000.33,0000.53,0000.30,0000.58,0000.70,0000.34,18.3,24.8,04.1,02.7,0684.5,31.1
2021-04-27T07:20:00Z,00040200,00000000,0002.32,0001.95,0001.27,0000.27,0000.35,-000.04,0000.65,0000.51,0000.22,18.3,24.9,04.1,02.8,0684.5,31.1
2021-04-27T07:21:00Z,00040200,00000000,0002.70,0002.03,0001.25,0000.60,0000.41,0000.21,0000.80,0000.44,0000.64,18.3,24.8,04.1,02.7,0684.5,31.2
2021-04-27T07:22:00Z,00040200,00000000,0002.01,0001.66,0001.20,0000.39,0000.31,0000.32,0000.49,0000.58,0000.87,18.3,24.8,04.0,02.7,0684.5,31.1
2021-04-27T07:23:00Z,00040200,00000000,0001.77,0001.68,0001.12,0000.34,0000.34,0000.40,0000.63,0000.57,0000.23,18.3,24.8,04.0,02.7,0684.4,31.1
2021-04-27T07:24:00Z,00040200,00000000,0002.83,0001.42,0001.29,0000.12,0000.31,0000.22,0000.99,0000.71,0000.20,18.3,24.9,04.0,02.7,0684.4,31.1
2021-04-27T07:25:00Z,00040200,00000000,0002.82,0001.76,0001.08,0000.30,0000.12,0000.02,0000.55,0000.65,0000.50,18.3,24.9,04.1,02.8,0684.4,31.1
2021-04-27T07:26:00Z,00040200,00000000,0002.04,0001.72,0001.06,0000.15,0000.33,0000.23,0000.48,0000.31,0000.63,18.3,24.8,04.0,02.7,0684.4,31.2
2021-04-27T07:27:00Z,00040200,00000000,0002.42,0002.23,0001.16,0000.56,0000.59,0000.24,0000.70,0000.71,0000.22,18.3,24.8,04.0,02.7,0684.4,31.1
2021-04-27T07:28:00Z,00040200,00000000,0002.69,0001.77,0000.78,0000.05,0000.32,-000.04,0000.55,0000.52,0000.41,18.3,24.8,04.0,02.7,0684.4,31.1
2021-04-27T07:29:00Z,00040200,00000000,0002.36,0001.91,0001.47,0000.30,0000.39,0000.06,0000.88,0000.61,0000.33,18.3,24.8,03.9,02.6,0684.4,31.1
2021-04-27T07:30:00Z,00040200,00000000,0003.15,0002.40,0001.88,0000.59,0000.61,0000.50,0002.23,0002.40,0002.30,18.3,24.8,03.9,02.6,0684.6,31.1
2021-04-27T07:31:00Z,00040200,00000000,0002.51,0002.13,0001.42,0000.92,0000.56,0000.30,0000.01,-000.02,-000.10,18.2,24.8,04.0,02.7,0685.0,31.1
2021-04-27T07:32:00Z,00040200,00000000,0003.41,0002.71,0001.86,0000.47,0000.34,0000.59,0000.88,0000.82,0000.74,18.3,24.8,03.8,02.5,0685.0,31.1
2021-04-27T07:33:00Z,00040200,00000000,0002.64,0002.17,0001.59,0000.27,0000.52,0000.30,0000.72,0000.34,0000.47,18.2,24.8,03.6,02.4,0685.0,31.1
2021-04-27T07:34:00Z,00040200,00000000,0002.67,0002.26,0001.67,0000.34,0000.54,0000.33,0000.60,0000.99,0000.49,18.2,24.8,03.6,02.4,0685.0,31.1
2021-04-27T07:35:00Z,00040200,00000000,0001.98,0002.16,0001.38,0000.77,0000.45,0000.46,0001.43,0000.31,0000.56,18.2,24.8,03.6,02.4,0685.0,31.1
2021-04-27T07:36:00Z,00040200,00000000,0002.54,0002.13,0001.25,0000.90,0000.77,0000.08,0000.22,0001.17,0000.62,18.2,24.8,03.7,02.5,0685.0,31.1
2021-04-27T07:37:00Z,00040200,00000000,0001.97,0001.89,0001.18,-000.23,0000.46,0000.33,0000.96,0000.29,0000.59,18.2,24.8,03.7,02.5,0685.0,31.1
2021-04-27T07:38:00Z,00040200,00000000,0002.20,0001.56,0001.33,0001.07,0000.27,0000.39,0000.95,0001.11,0000.76,18.2,24.8,03.7,02.4,0685.0,31.1
2021-04-27T07:39:00Z,00040200,00000000,0002.16,0001.80,0001.36,0000.43,0000.36,0000.15,0000.58,0000.85,0000.53,18.2,24.8,03.8,02.5,0685.0,31.1
2021-04-27T07:40:00Z,00040200,00000000,0002.31,0001.38,0001.34,0000.35,0000.23,0000.15,0000.67,0000.40,0000.22,18.2,24.8,03.9,02.6,0684.9,31.1
2021-04-27T07:41:00Z,00040200,00000000,0001.48,0001.29,0001.01,-000.08,0000.51,0000.10,0000.85,0000.68,0000.62,18.2,24.8,03.9,02.6,0684.9,31.1
2021-04-27T07:42:00Z,00040200,00000000,0001.37,0001.15,0000.71,0000.67,0000.29,-000.04,0000.48,0000.40,0000.37,18.2,24.8,03.9,02.6,0684.9,31.1
2021-04-27T07:43:00Z,00040200,00000000,0002.29,0001.15,0000.63,0000.63,0000.22,-000.01,0000.67,0000.77,0000.59,18.2,24.8,04.0,02.7,0684.9,31.1
2021-04-27T07:44:00Z,00040200,00000000,0002.25,0001.49,0000.46,0000.47,0000.14,0000.11,0000.94,0000.66,0000.26,18.2,24.8,04.0,02.7,0685.0,31.1
2021-04-27T07:45:00Z,00040200,00000000,0002.01,0001.46,0000.95,0000.12,0000.29,0000.17,0000.48,0000.70,0000.58,18.3,24.8,04.1,02.7,0685.0,31.1
2021-04-27T07:46:00Z,00040200,00000000,0001.65,0001.56,0000.62,0000.56,0000.37,0000.21,0000.74,0000.51,0000.38,18.3,24.8,04.1,02.7,0685.0,31.1
2021-04-27T07:47:00Z,00040200,00000000,0001.52,0001.53,0001.11,0000.31,0000.52,0000.13,0000.61,0000.90,0000.56,18.3,24.8,04.1,02.7,0685.0,31.1
2021-04-27T07:48:00Z,00040200,00000000,0001.47,0001.44,0001.06,0000.35,0000.29,0000.21,0000.76,0000.67,0000.49,18.3,24.8,04.2,02.8,0685.0,31.1
2021-04-27T07:49:00Z,00040200,00000000,0001.91,0001.65,0000.71,0000.69,0000.39,0000.53,0000.52,0000.58,0000.59,18.3,24.8,04.2,02.8,0685.0,31.1
2021-04-27T07:50:00Z,00040200,00000000,0001.81,0001.39,0000.66,-000.08,0000.50,0000.25,0000.66,0000.48,0000.64,18.3,24.9,04.2,02.8,0685.0,31.1
2021-04-27T07:51:00Z,00040200,00000000,0002.41,0001.45,0000.96,0000.84,0000.41,0000.53,0000.81,0000.51,-000.01,18.3,24.9,04.2,02.8,0685.0,31.1
2021-04-27T07:52:00Z,00040200,00000000,0001.48,0001.26,0000.90,0000.20,0000.19,0000.24,0000.57,0000.29,0000.38,18.3,24.8,04.2,02.8,0685.0,31.1
2021-04-27T07:53:00Z,00040200,00000000,0002.06,0001.90,0001.00,0000.12,0000.34,-000.21,0000.47,0000.50,0000.63,18.3,24.8,04.1,02.8,0685.0,31.1
2021-04-27T07:54:00Z,00040200,00000000,0001.32,0001.40,0001.06,0000.14,0000.09,0000.31,0000.68,0000.54,0000.43,18.2,24.8,04.2,02.8,0685.1,31.1
2021-04-27T07:55:00Z,00040200,00000000,0001.88,0001.20,0000.94,0000.98,0000.36,0000.11,0000.15,0000.28,-000.12,18.2,24.8,04.1,02.8,0685.1,31.0
2021-04-27T07:56:00Z,00040200,00000000,0001.91,0001.44,0001.00,0000.27,0000.45,0000.22,0000.76,0000.25,0000.84,18.2,24.7,04.1,02.7,0685.1,31.1
2021-04-27T07:57:00Z,00040200,40000000,,,,,,,0000.06,0000.45,-000.02,18.2,24.8,04.5,03.0,0685.2,31.0
2021-04-27T07:58:00Z,00040200,60000000,,,,,,,-000.00,-000.21,-000.14,18.0,24.9,03.9,02.5,0684.1,31.0
2021-04-27T07:59:00Z,00040200,20000000,,,,,,,-000.05,-000.01,0000.05,18.0,25.0,04.0,02.6,0684.1,31.0
